Monroe, LA

9:35 AM CDT on April 26, 2017 (GMT -0500)
Monroe Regional

Weather History for KMLU - September, 2014

Change the Weather History Date:

Thursday, September 11, 2014

  Actual Average Record
Temperature  
Mean Temperature 83 °F 78 °F  
Max Temperature 93 °F 91 °F 99 °F (1947)
Min Temperature 73 °F 66 °F 51 °F (1976)
Degree Days  
Heating Degree Days 0 0  
Month to date heating degree days 0 0  
Since 1 July heating degree days 0 0  
Cooling Degree Days 18 13  
Month to date cooling degree days 190 163  
Year to date cooling degree days 1941 2170  
Growing Degree Days 33 (Base 50)    
Moisture  
Dew Point 75 °F    
Average Humidity 73    
Maximum Humidity 94    
Minimum Humidity 52    
Precipitation  
Precipitation 0.11 in 0.14 in 1.49 in (1998)
Month to date precipitation 1.23 1.34  
Year to date precipitation 40.46 36.82  
Snow  
Snow 0.00 in - - ()
Month to date snowfall 0.0  
Since 1 July snowfall 0.0  
Since 1 September snowfall 0.0  
Snow Depth 0.00 in    
Sea Level Pressure  
Sea Level Pressure 29.97 in    
Wind  
Wind Speed 5 mph (SW)    
Max Wind Speed 20 mph    
Max Gust Speed 26 mph    
Visibility 10 miles    
Events Rain    
T = Trace of Precipitation, MM = Missing Value Source: NWS Daily Summary

Daily Weather History Graph

Daily Weather History Graph

Search for Another Location

Airport or City:

Trip Planner

Search our weather history database for the weather conditions in past years. The results will help you decide how hot, cold, wet, or windy it might be!

Date:

Astronomy

Sep. 11, 2014 Rise Set
Actual Time 6:49 AM CDT 7:19 PM CDT
Civil Twilight 6:24 AM CDT 7:44 PM CDT
Nautical Twilight 5:55 AM CDT 8:13 PM CDT
Astronomical Twilight 5:26 AM CDT 8:42 PM CDT
Moon 9:11 PM CDT (9/11) 9:35 AM CDT (9/11)
Length of Visible Light 13h 19m
Length of Day
12h 30m
Waning Gibbous, 90% of the Moon is Illuminated
Sep 11
Waning Gibbous
Sep 15
Last Quarter
Sep 24
New
Oct 1
First Quarter
Oct 8
Full

Hourly Weather History & Observations

Time (CDT) Temp. Heat Index Dew Point Humidity Pressure Visibility Wind Dir Wind Speed Gust Speed Precip Events Conditions
12:53 AM 78.1 °F - 73.9 °F 87% 29.93 in 10.0 mi Calm Calm - N/A   Clear
1:53 AM 77.0 °F - 73.9 °F 90% 29.92 in 10.0 mi South 4.6 mph - N/A   Clear
2:53 AM 77.0 °F - 73.9 °F 90% 29.92 in 10.0 mi SSW 3.5 mph - N/A   Clear
3:53 AM 77.0 °F - 73.9 °F 90% 29.92 in 10.0 mi SSW 3.5 mph - N/A   Clear
4:53 AM 75.9 °F - 73.0 °F 91% 29.94 in 10.0 mi SSW 3.5 mph - N/A   Clear
5:53 AM 75.0 °F - 73.0 °F 94% 29.95 in 10.0 mi South 3.5 mph - N/A   Clear
6:53 AM 75.0 °F - 73.0 °F 94% 29.96 in 9.0 mi Calm Calm - N/A   Clear
7:53 AM 75.9 °F - 73.9 °F 94% 29.97 in 10.0 mi SSE 4.6 mph - N/A   Clear
8:36 AM 78.8 °F - 75.2 °F 89% 29.98 in 10.0 mi SSW 4.6 mph - N/A   Partly Cloudy
8:53 AM 80.1 °F 85.4 °F 75.9 °F 87% 29.98 in 10.0 mi SSW 6.9 mph - N/A   Partly Cloudy
9:21 AM 82.4 °F 89.5 °F 75.2 °F 79% 29.99 in 10.0 mi SW 8.1 mph - N/A   Mostly Cloudy
9:53 AM 82.9 °F 90.8 °F 75.9 °F 79% 30.00 in 10.0 mi SW 8.1 mph - N/A   Mostly Cloudy
10:09 AM 84.2 °F 94.1 °F 77.0 °F 79% 30.00 in 10.0 mi South 6.9 mph - N/A   Mostly Cloudy
10:34 AM 86.0 °F 95.1 °F 75.2 °F 70% 30.01 in 10.0 mi WSW 9.2 mph - N/A   Scattered Clouds
10:42 AM 87.8 °F 99.7 °F 77.0 °F 70% 30.01 in 10.0 mi West 8.1 mph - N/A   Mostly Cloudy
10:53 AM 84.9 °F 93.3 °F 75.0 °F 72% 30.00 in 10.0 mi WSW 10.4 mph - N/A   Scattered Clouds
11:01 AM 87.8 °F 97.6 °F 75.2 °F 66% 30.01 in 10.0 mi WSW 8.1 mph - N/A   Mostly Cloudy
11:53 AM 89.1 °F 99.1 °F 75.0 °F 63% 30.00 in 10.0 mi SW 6.9 mph - N/A   Mostly Cloudy
12:53 PM 87.1 °F 96.3 °F 75.0 °F 67% 30.00 in 10.0 mi NW 15.0 mph - N/A   Mostly Cloudy
1:10 PM 80.6 °F 84.6 °F 71.6 °F 74% 30.01 in 2.0 mi West 19.6 mph 26.5 mph N/A   Haze
1:34 PM 84.2 °F 92.3 °F 75.2 °F 74% 30.00 in 10.0 mi North 3.5 mph - 0.11 in Rain Light Rain
1:53 PM 88.0 °F 97.5 °F 75.0 °F 65% 29.99 in 10.0 mi Calm Calm - 0.11 in   Mostly Cloudy
2:53 PM 90.0 °F 100.2 °F 75.0 °F 61% 29.95 in 10.0 mi Calm Calm - N/A   Clear
3:53 PM 91.0 °F 101.6 °F 75.0 °F 59% 29.93 in 10.0 mi NW 4.6 mph - N/A   Partly Cloudy
4:53 PM 91.9 °F 100.7 °F 73.0 °F 54% 29.91 in 10.0 mi North 4.6 mph - N/A   Clear
5:53 PM 91.9 °F 99.5 °F 72.0 °F 52% 29.91 in 10.0 mi Calm Calm - N/A   Clear
6:53 PM 88.0 °F 100.2 °F 77.0 °F 70% 29.93 in 10.0 mi Calm Calm - N/A   Clear
7:53 PM 82.0 °F 89.4 °F 75.9 °F 82% 29.94 in 10.0 mi Calm Calm - N/A   Clear
8:53 PM 81.0 °F 86.7 °F 75.0 °F 82% 29.96 in 10.0 mi Calm Calm - N/A   Clear
9:53 PM 78.1 °F - 75.0 °F 90% 29.96 in 10.0 mi NE 3.5 mph - N/A   Clear
10:53 PM 80.1 °F 84.5 °F 73.9 °F 81% 30.00 in 10.0 mi NE 9.2 mph - N/A   Mostly Cloudy
11:53 PM 79.0 °F - 73.9 °F 84% 30.00 in 10.0 mi ENE 8.1 mph - 0.00 in   Partly Cloudy